User: anonymous   Login
Location: Arleux
(50.3632°N, 2.8721°E)
Time: 05:18:13
(UTC+00:00)
Language:

CAS-4B - Orbit

View from above orbital plane
View from above orbital plane
View from above satellite
View from above satellite

Ground track
Ground track

The orbit data is extracted from the following two-line orbital elements,

1 42759U 17034B   21128.49345914  .00000419  00000-0  38557-4 0  9991
2 42759  43.0194  40.7630 0010323 277.4335 251.4164 15.10185115215100
Epoch (UTC): 08 May 2021 11:50:34
Eccentricity: 0.0010323
inclination: 43.0194°
perigee height: 528 km
apogee height: 543 km
right ascension of ascending node: 40.7630°
argument of perigee: 277.4335°
revolutions per day: 15.10185115
mean anomaly at epoch: 251.4164°
orbit number at epoch: 21510

The dashed part of the orbit path shows where the satellite is in the earth's shadow,  

DLR